EST,Max TemperatureF,Mean TemperatureF,Min TemperatureF,Max Dew PointF,MeanDew PointF,Min DewpointF,Max Humidity, Mean Humidity, Min Humidity, Max Sea Level PressureIn, Mean Sea Level PressureIn, Min Sea Level PressureIn, Max VisibilityMiles, Mean VisibilityMiles, Min VisibilityMiles, Max Wind SpeedMPH, Mean Wind SpeedMPH, Max Gust SpeedMPH,PrecipitationIn, CloudCover, Events, WindDirDegrees
2012-11-1,79,63,48,63,55,47,100,90,52,30.05,30.02,29.97,10,5,0,14,1,22,0.00,1,Fog,256
2012-11-2,78,60,42,56,47,43,100,85,31,30.12,30.07,30.04,10,5,0,13,1,17,0.00,0,Fog,330
2012-11-3,82,65,48,67,58,47,100,85,51,30.15,30.11,30.07,10,8,0,9,1,,0.00,1,Fog,282
2012-11-4,81,71,62,66,63,58,100,89,47,30.14,30.09,30.02,10,4,0,12,1,,0.01,3,Fog,267
2012-11-5,80,68,55,67,59,54,100,88,42,30.03,30.00,29.95,10,5,0,13,1,17,0.00,2,Fog,296
2012-11-6,75,62,50,64,56,50,100,91,60,29.97,29.92,29.84,10,6,0,13,1,21,0.28,2,Fog-Rain,265
2012-11-7,64,56,48,53,48,43,93,73,50,30.04,29.96,29.90,10,10,10,16,7,24,0.00,3,Rain,325
2012-11-8,66,55,43,45,41,36,100,65,32,30.21,30.13,30.03,10,10,8,13,6,17,0.00,0,,346
2012-11-9,73,54,34,48,38,34,100,83,28,30.30,30.23,30.19,10,5,0,12,1,,0.00,0,Fog,47
2012-11-10,75,58,42,53,46,40,93,64,36,30.34,30.29,30.25,10,10,10,13,3,18,0.00,1,,64
2012-11-11,82,67,52,61,56,51,100,73,39,30.32,30.27,30.23,10,10,6,13,4,21,0.00,1,,70
2012-11-12,82,71,60,65,62,59,97,75,45,30.27,30.23,30.17,10,10,8,10,3,16,0.00,3,,79
2012-11-13,81,70,59,66,62,57,100,84,50,30.22,30.16,30.12,10,8,1,7,1,,0.00,2,,356
2012-11-14,73,65,57,65,63,57,100,89,68,30.22,30.16,30.13,10,8,0,13,4,,0.00,5,Fog,39
2012-11-15,64,60,57,63,59,55,100,90,81,30.19,30.15,30.11,10,9,2,9,6,,0.00,8,,23
2012-11-16,64,60,55,56,54,53,96,83,68,30.21,30.17,30.13,10,9,4,10,6,,0.00,8,,23
2012-11-17,75,66,57,61,58,53,90,78,58,30.20,30.16,30.11,10,10,8,17,10,23,0.00,6,,36
2012-11-18,71,60,48,57,54,46,100,84,57,30.23,30.19,30.15,10,8,0,16,9,21,0.00,4,Fog,42
2012-11-19,66,54,42,55,51,43,100,86,64,30.21,30.17,30.10,10,8,0,12,3,16,0.00,3,Fog,17
2012-11-20,75,62,50,59,54,49,100,82,50,30.12,30.07,30.00,10,7,0,13,5,16,0.00,2,Fog,349
2012-11-21,75,60,46,54,49,46,100,89,37,30.13,30.07,30.03,10,4,0,12,1,18,0.00,1,Fog,351
2012-11-22,73,54,35,45,39,32,100,79,23,30.22,30.14,30.11,10,6,0,16,2,26,0.00,0,Fog,22
2012-11-23,73,53,33,42,37,31,96,67,27,30.25,30.19,30.12,10,10,10,12,2,16,0.00,0,,320
2012-11-24,73,55,37,56,42,37,100,81,41,30.13,30.11,30.09,10,8,1,13,2,,0.00,2,,298
2012-11-25,71,50,28,39,33,24,100,82,17,30.21,30.14,30.12,10,5,0,12,1,,0.00,0,Fog,328
2012-11-26,77,54,32,49,41,29,96,67,33,30.26,30.19,30.15,10,10,10,9,2,,0.00,0,,111
2012-11-27,77,62,48,61,56,46,100,89,54,30.22,30.16,30.11,10,6,0,12,1,,0.00,1,Fog,192
2012-11-28,73,64,55,59,56,52,100,88,55,30.31,30.20,30.14,10,6,0,14,3,,0.00,4,Fog,28
2012-11-29,77,64,50,55,52,49,96,70,40,30.31,30.27,30.22,10,10,9,13,8,18,0.00,1,,47
2012-11-30,77,65,53,56,53,51,97,72,40,30.30,30.24,30.18,10,10,9,13,6,18,0.00,1,,61